Regional Weather Roundup
Issued by NWS

Home | Current Version | Previous Version | Text Only | Print | Product List | Glossary On
Versions: 1 2 3 4 5 6 7 8 9 10 11 12 13 14 15 16 17 18 19 20 21 22 23 24 25 26 27 28 29 30 31 32 33 34 35 36 37 38 39 40 41 42 43 44 45 46 47 48 49 50
000
ASUS43 KMKX 121321
RWRWI

WISCONSIN REGIONAL WEATHER ROUNDUP
NATIONAL WEATHER SERVICE MILWAUKEE/SULLIVAN WI
800 AM CDT SAT JUL 12 2014

NOTE: "FAIR" INDICATES FEW OR NO CLOUDS BELOW 12,000 FEET WITH NO
SIGNIFICANT WEATHER AND/OR OBSTRUCTIONS TO VISIBILITY.

WIZ001-002-006>008-014>016-023>028-121400-
NORTHWEST WISCONSIN

CITY           SKY/WX    TMP DP  RH WIND       PRES   REMARKS
SUPERIOR ARPT  PTSUNNY   66  63  90 CALM      30.00F
ASHLAND        CLOUDY    69  65  86 NW5       30.01S
HAYWARD        CLOUDY    67  67 100 CALM      30.02S FOG
SIREN          FOG       68  67  98 CALM      30.01S VSB 1/4
RICE LAKE      CLOUDY    68  66  95 CALM      30.02F FOG
LADYSMITH      CLOUDY    68  66  96 CALM      30.04F FOG
EAU CLAIRE     CLOUDY    71  68  90 SW3       30.00F
MENOMONIE      CLOUDY    70  68  93 CALM      30.00F
NEW RICHMOND   CLOUDY    69  68  98 SW3       30.01S FOG
OSCEOLA        CLOUDY    70  70 100 CALM      30.03S FOG
$$

WIZ003>005-009-010-017-018-121400-
NORTH CENTRAL WISCONSIN

CITY           SKY/WX    TMP DP  RH WIND       PRES   REMARKS
WOODRUFF       CLOUDY    71  67  89 CALM      30.03F
RHINELANDER    CLOUDY    68  65  90 W9        30.05S
EAGLE RIVER    CLOUDY    67  65  96 SW5       30.03S
LAND O LAKES   CLOUDY    69  65  88 CALM      30.04S
PHILLIPS       CLOUDY    68  66  93 SW6       30.03S
TOMAHAWK       PTSUNNY   69  65  86 CALM      30.04S
MEDFORD        CLOUDY    67  65  93 W5        30.03F
MERRILL        PTSUNNY   69  67  90 CALM      30.02F
$$

WIZ029-030-035-036-043>047-121400-
CENTRAL WISCONSIN

CITY           SKY/WX    TMP DP  RH WIND       PRES   REMARKS
WAUSAU         PTSUNNY   69  64  84 NW6       30.01F
MOSINEE        MOSUNNY   70  66  88 W3        30.04F
MARSHFIELD     CLOUDY    69  66  90 NW3       30.02F
STEVENS POINT  CLOUDY    67  62  84 CALM      30.03F
WAUPACA        PTSUNNY   70  64  80 CALM      30.03S
WAUTOMA        CLOUDY    68  63  84 CALM      30.04S
WISC RAPIDS    CLOUDY    71  64  78 CALM      30.03F
CAMP DOUGLAS   NOT AVBL
$$

WIZ011>013-019>022-031-037>040-048>050-121400-
NORTHEAST WISCONSIN

CITY           SKY/WX    TMP DP  RH WIND       PRES   REMARKS
ANTIGO         PTSUNNY   68  65  90 W5        30.04F
STURGEON BAY   PTSUNNY   70  61  73 S6        30.03S
GREEN BAY      CLOUDY    70  64  81 S5        30.03R
MANITOWOC      CLOUDY    64  61  90 CALM      30.04S
APPLETON       CLOUDY    68  61  77 VRB3      30.04S
CLINTONVILLE   CLOUDY    68  61  77 CALM      30.02F
OSHKOSH        CLOUDY    70  64  81 S3        30.03S
$$

WIZ032>034-041-042-053>061-121400-
SOUTHWEST WISCONSIN

CITY           SKY/WX    TMP DP  RH WIND       PRES   REMARKS
LA CROSSE      CLOUDY    73  67  81 S6        30.01S
SPARTA         CLOUDY    70  66  86 CALM      30.03F
VIROQUA        CLOUDY    69  69  99 SW5       30.05S
BOSCOBEL       CLOUDY    71  66  84 SW3       30.04S
PRAIRIE DU CHI CLOUDY    70  66  89 E3        30.01F
PLATTEVILLE    FAIR      68  66  94 CALM      30.06F
$$

WIZ056-057-062-063-064-067-068-121400-
SOUTH CENTRAL WISCONSIN

CITY           SKY/WX    TMP DP  RH WIND       PRES   REMARKS
BARABOO/DELLS  CLOUDY    71  64  77 SW3       30.04S
LONE ROCK      CLOUDY    74  67  78 CALM      30.04R
WATERTOWN      PTSUNNY   71  64  80 CALM      30.03S
MADISON        CLOUDY    72  64  76 SW3       30.04R
MIDDLETON      CLOUDY    72  64  77 CALM      30.05R
MONROE         CLOUDY    70  64  83 SW6       30.05S
JANESVILLE     CLOUDY    72  64  78 S6        30.04R
$$

WIZ051-052-058>065-066-070>072-121400-
SOUTHEAST WISCONSIN

CITY           SKY/WX    TMP DP  RH WIND       PRES   REMARKS
MILWAUKEE      CLOUDY    73  62  68 S6        30.04R
WAUKESHA       LGT RAIN  68  61  77 CALM      30.05R
MILWAUKEE/TIMM CLOUDY    72  61  68 CALM      30.04F
RACINE         CLOUDY    71  64  78 S6        30.05S
BURLINGTON     PTSUNNY   70  64  82 SW6       30.03F
KENOSHA        PTSUNNY   72  66  81 SW7       30.04S
FOND DU LAC    CLOUDY    72  63  73 S5        30.04S
SHEBOYGAN      CLOUDY    66  61  84 CALM      30.04S
WEST BEND      CLOUDY    70  59  68 CALM      30.04S
JUNEAU         CLOUDY    70  48  45 CALM      30.06R
$$

LSZ147-162-121400-
LAKE SUPERIOR

STATION/POSITION TIME  TEMP    WIND        PRES    WAVE
                       AIR SEA DIR/SP/G            HT/PER
                 (UTC) (F)     (DEG/KT/KT) (MB)    (FT/S)
W MID LAKE BUOY  1250   45 38  270/  6/  6 1015.5R   0
PORT WING        1240   67      CALM  /  1 1015.9R
SAXON HARBOR     1200             CALM     1015.9
$$

LMZ867-665-643>646-121400-
LAKE MICHIGAN

STATION/POSITION TIME  TEMP    WIND        PRES    WAVE
                       AIR SEA DIR/SP/G            HT/PER
                 (UTC) (F)     (DEG/KT/KT) (MB)    (FT/S)
N MID LAKE BUOY  1250   57 55  210/ 12/ 14 1015.8F   2/ 4
NORTHPORT PIER   1200   64     190/  4/  8 1016.3F
KEWAUNEE LAKESHO 1300   53     170/  5/  5 1017.4F
SHEBOYGAN LAKESH 1300   64     170/  4/  5 1017.3R
PORT WASHINGTON  1200   62      CALM  /  2 1017.6
MILWAUKEE LAKESH 1300   63      CALM  /  1   N/A
S MID LAKE BUOY  1250   62 58  140/ 10/ 10 1017.7S   1
KENOSHA   LAKESH 1300   65     170/  8/ 10   N/A
$$

TC  - TEMPERATURE IN CELSIUS
VSB - VISIBILITY IN STATUTE MILES
WCI - WIND CHILL INDEX
HX  - HEAT INDEX




USA.gov is the U.S. government's official web portal to all federal, state and local government web resources and services.